contact:dominique.lefevre@mio.osupytheas.fr, maurice.libes@osupytheas.fr, didier.mallarino@osupytheas.fr
Project:EMSO http://www.emso-fr.org/EMSO-France
Depth: 2436.0 m
Title:EMSO Ligure Ouest : Data MII capteur AQUADOPP
Date,Latitude,Longitude,X_East,Y_North,Z_Up,Amplitude_X,Amplitude_Y,Amplitude_Z,Batterie,SoundSpeed,Heading,Pitch,Roll,Pressure,TIS,Speed,Direction
, degrees North, degrees East, m.s-1, m.s-1,m.s-1, 1, 1, 1, Volt, m.s-1, degree, degree, degree, dbar, degree_C, m.s-1, degree
2019-12-12T00:04:03,42.805,6.029,0.081,-0.004,-0.004,102.0,103.0,101.0,13.4,1505.2,325.8,-0.7,1.8,2470.032,13.3,0.081,92.8
2019-12-12T00:07:03,42.805,6.029,0.109,-0.02,-0.03,101.0,102.0,100.0,13.3,1505.3,325.0,-0.7,1.8,2470.047,13.31,0.11,100.4
2019-12-12T00:10:03,42.805,6.029,0.109,-0.025,0.013,102.0,103.0,99.0,13.4,1505.3,326.0,-0.7,1.8,2470.05,13.31,0.111,102.9
2019-12-12T00:13:03,42.805,6.029,0.093,-0.016,-0.013,101.0,102.0,100.0,13.3,1505.3,326.1,-0.7,1.8,2470.021,13.31,0.094,99.8
2019-12-12T00:16:03,42.805,6.029,0.08,0.001,0.005,101.0,103.0,99.0,13.4,1505.3,328.4,-0.7,1.8,2470.036,13.32,0.08,89.3
2019-12-12T00:19:03,42.805,6.029,0.115,-0.026,-0.021,101.0,103.0,100.0,13.4,1505.3,328.5,-0.7,1.8,2470.009,13.32,0.117,102.7
2019-12-12T00:22:03,42.805,6.029,0.105,-0.044,-0.026,101.0,103.0,99.0,13.4,1505.3,328.5,-0.7,1.8,2469.994,13.32,0.113,112.7
2019-12-12T00:25:03,42.805,6.029,0.101,-0.031,-0.035,102.0,102.0,100.0,13.4,1505.3,327.1,-0.7,1.9,2470.006,13.32,0.105,107.1
2019-12-12T00:28:03,42.805,6.029,0.08,-0.014,-0.012,102.0,104.0,99.0,13.4,1505.3,323.5,-0.7,1.8,2470.067,13.32,0.081,99.9
2019-12-12T00:31:03,42.805,6.029,0.1,-0.004,-0.004,100.0,104.0,100.0,13.4,1505.3,325.9,-0.7,1.9,2470.026,13.32,0.1,92.3
2019-12-12T00:34:03,42.805,6.029,0.098,-0.02,-0.027,102.0,103.0,100.0,13.4,1505.3,325.8,-0.7,1.8,2470.045,13.32,0.1,101.5
2019-12-12T00:37:03,42.805,6.029,0.085,-0.028,-0.007,102.0,103.0,101.0,13.4,1505.3,327.8,-0.7,1.8,2470.01,13.32,0.089,108.2
2019-12-12T00:40:03,42.805,6.029,0.084,-0.016,0.003,102.0,105.0,101.0,13.4,1505.3,324.9,-0.7,1.9,2470.018,13.32,0.085,100.8
2019-12-12T00:43:03,42.805,6.029,0.096,-0.003,-0.004,102.0,103.0,100.0,13.3,1505.3,324.7,-0.7,1.8,2470.032,13.32,0.096,91.8
2019-12-12T00:46:03,42.805,6.029,0.082,-0.035,-0.05,102.0,103.0,99.0,13.4,1505.3,327.7,-0.7,1.8,2469.985,13.32,0.089,113.1
2019-12-12T00:49:03,42.805,6.029,0.111,-0.025,-0.027,102.0,103.0,99.0,13.4,1505.3,324.7,-0.7,1.9,2470.019,13.32,0.113,102.7
2019-12-12T00:52:03,42.805,6.029,0.084,-0.021,-0.034,102.0,102.0,100.0,13.4,1505.3,325.9,-0.7,1.8,2470.01,13.32,0.086,104.0
2019-12-12T00:55:03,42.805,6.029,0.085,-0.023,-0.03,101.0,104.0,99.0,13.4,1505.3,325.6,-0.7,1.8,2469.988,13.32,0.088,105.1
2019-12-12T00:58:03,42.805,6.029,0.088,-0.016,-0.032,102.0,103.0,99.0,13.4,1505.3,326.1,-0.7,1.9,2470.031,13.32,0.089,100.3
2019-12-12T01:04:03,42.805,6.029,0.084,-0.017,-0.014,102.0,104.0,101.0,13.4,1505.2,323.5,-0.7,1.8,2470.077,13.3,0.085,101.4
2019-12-12T01:07:04,42.805,6.029,0.076,-0.02,-0.047,102.0,103.0,99.0,13.3,1505.3,324.8,-0.7,1.8,2470.05,13.31,0.078,104.7
2019-12-12T01:10:03,42.805,6.029,0.101,-0.025,-0.006,102.0,104.0,99.0,13.4,1505.3,325.6,-0.7,1.8,2469.998,13.31,0.104,103.9
2019-12-12T01:13:03,42.805,6.029,0.105,-0.011,-0.013,101.0,103.0,100.0,13.4,1505.3,323.9,-0.7,1.8,2470.048,13.31,0.105,96.0
2019-12-12T01:16:03,42.805,6.029,0.078,-0.009,-0.036,102.0,103.0,100.0,13.4,1505.3,326.5,-0.7,1.8,2470.027,13.32,0.078,96.6
2019-12-12T01:19:03,42.805,6.029,0.1,-0.023,-0.03,102.0,102.0,100.0,13.4,1505.3,327.3,-0.7,1.8,2470.014,13.32,0.102,103.0
2019-12-12T01:22:03,42.805,6.029,0.116,-0.022,-0.024,103.0,102.0,100.0,13.4,1505.3,323.2,-0.7,1.8,2470.023,13.32,0.118,100.7
2019-12-12T01:25:03,42.805,6.029,0.085,-0.025,-0.051,103.0,103.0,99.0,13.3,1505.3,327.2,-0.7,1.8,2470.034,13.32,0.088,106.4
2019-12-12T01:28:03,42.805,6.029,0.102,0.003,-0.035,101.0,101.0,100.0,13.4,1505.3,326.5,-0.7,1.8,2470.008,13.32,0.102,88.3
2019-12-12T01:31:03,42.805,6.029,0.109,-0.03,-0.023,101.0,103.0,100.0,13.4,1505.3,324.5,-0.7,1.8,2470.017,13.32,0.113,105.4
2019-12-12T01:34:03,42.805,6.029,0.116,-0.025,0.0,101.0,102.0,100.0,13.4,1505.3,326.6,-0.7,1.8,2469.994,13.32,0.118,102.2
2019-12-12T01:37:03,42.805,6.029,0.123,-0.012,0.005,102.0,102.0,100.0,13.3,1505.3,324.2,-0.7,1.8,2469.978,13.32,0.123,95.6
2019-12-12T01:40:03,42.805,6.029,0.073,-0.017,-0.053,102.0,103.0,99.0,13.4,1505.3,328.3,-0.7,1.9,2469.998,13.32,0.074,103.1
2019-12-12T01:43:03,42.805,6.029,0.095,-0.022,-0.034,103.0,103.0,99.0,13.3,1505.3,323.8,-0.7,1.8,2470.042,13.32,0.097,103.0
2019-12-12T01:46:03,42.805,6.029,0.085,-0.019,-0.042,102.0,102.0,99.0,13.4,1505.3,326.9,-0.7,1.9,2470.026,13.32,0.087,102.6
2019-12-12T01:49:03,42.805,6.029,0.121,-0.057,-0.017,101.0,102.0,99.0,13.4,1505.3,328.8,-0.7,1.9,2470.035,13.32,0.133,115.2
2019-12-12T01:52:03,42.805,6.029,0.13,-0.035,-0.014,101.0,103.0,100.0,13.4,1505.3,323.5,-0.7,1.8,2470.018,13.32,0.134,105.1
2019-12-12T01:55:03,42.805,6.029,0.097,-0.007,-0.019,100.0,101.0,99.0,13.4,1505.3,325.3,-0.7,1.8,2470.008,13.32,0.097,94.1
2019-12-12T01:58:03,42.805,6.029,0.101,-0.025,-0.021,101.0,102.0,99.0,13.3,1505.3,328.5,-0.7,1.8,2470.0,13.32,0.104,103.9
2019-12-12T02:04:03,42.805,6.029,0.097,0.0,-0.007,103.0,103.0,100.0,13.4,1505.2,325.0,-0.8,1.8,2470.056,13.3,0.097,90.0
2019-12-12T02:07:03,42.805,6.029,0.067,-0.017,-0.034,101.0,102.0,99.0,13.3,1505.3,324.8,-0.7,1.9,2470.033,13.31,0.069,104.2
2019-12-12T02:10:03,42.805,6.029,0.098,-0.016,-0.027,102.0,103.0,100.0,13.4,1505.3,324.3,-0.7,1.8,2470.033,13.31,0.099,99.3
2019-12-12T02:13:03,42.805,6.029,0.092,-0.031,-0.025,101.0,102.0,100.0,13.3,1505.3,328.1,-0.7,1.9,2470.061,13.31,0.097,108.6
2019-12-12T02:16:03,42.805,6.029,0.123,-0.034,-0.006,102.0,102.0,99.0,13.3,1505.3,328.2,-0.7,1.8,2470.044,13.32,0.127,105.4
2019-12-12T02:19:03,42.805,6.029,0.093,-0.021,-0.024,101.0,103.0,100.0,13.4,1505.3,327.5,-0.7,1.8,2470.06,13.32,0.095,102.7
2019-12-12T02:22:03,42.805,6.029,0.098,-0.03,-0.039,102.0,102.0,99.0,13.3,1505.3,328.6,-0.6,1.8,2470.013,13.32,0.102,107.0
2019-12-12T02:25:03,42.805,6.029,0.128,-0.023,0.0,101.0,104.0,98.0,13.3,1505.3,324.2,-0.7,1.8,2470.05,13.32,0.13,100.2
2019-12-12T02:28:03,42.805,6.029,0.084,-0.015,-0.01,100.0,102.0,100.0,13.3,1505.3,325.0,-0.7,1.8,2470.055,13.32,0.085,100.1
2019-12-12T02:31:03,42.805,6.029,0.102,-0.021,-0.016,101.0,102.0,100.0,13.4,1505.3,328.0,-0.7,1.8,2470.024,13.32,0.104,101.6
2019-12-12T02:34:03,42.805,6.029,0.081,-0.01,-0.021,102.0,103.0,99.0,13.4,1505.3,323.7,-0.7,1.9,2470.045,13.32,0.081,97.0
2019-12-12T02:37:03,42.805,6.029,0.131,-0.015,-0.042,102.0,103.0,99.0,13.3,1505.3,324.5,-0.7,1.8,2470.037,13.32,0.131,96.5
2019-12-12T02:40:03,42.805,6.029,0.116,-0.029,-0.025,101.0,101.0,99.0,13.4,1505.3,325.0,-0.7,1.8,2470.055,13.32,0.119,104.0
2019-12-12T02:43:03,42.805,6.029,0.105,-0.032,-0.036,101.0,102.0,99.0,13.4,1505.3,325.4,-0.7,1.8,2470.049,13.32,0.109,106.9
2019-12-12T02:46:03,42.805,6.029,0.089,-0.012,-0.033,101.0,102.0,99.0,13.4,1505.3,325.3,-0.7,1.8,2470.056,13.32,0.089,97.7
2019-12-12T02:49:03,42.805,6.029,0.092,-0.021,-0.035,101.0,103.0,100.0,13.4,1505.3,325.4,-0.7,1.8,2469.996,13.32,0.094,102.9
2019-12-12T02:52:03,42.805,6.029,0.104,-0.04,-0.015,103.0,101.0,100.0,13.4,1505.3,327.9,-0.7,1.8,2470.001,13.32,0.111,111.0
2019-12-12T02:55:03,42.805,6.029,0.097,-0.023,-0.029,102.0,104.0,100.0,13.4,1505.3,327.0,-0.7,1.8,2470.031,13.32,0.099,103.3
2019-12-12T02:58:03,42.805,6.029,0.082,-0.03,-0.004,102.0,102.0,100.0,13.4,1505.3,327.4,-0.7,1.8,2470.041,13.32,0.087,110.1
2019-12-12T03:04:03,42.805,6.029,0.104,-0.021,-0.033,102.0,102.0,99.0,13.4,1505.2,325.9,-0.8,1.8,2470.069,13.3,0.106,101.4
2019-12-12T03:07:03,42.805,6.029,0.117,-0.012,-0.018,102.0,103.0,100.0,13.3,1505.3,325.4,-0.7,1.9,2470.081,13.31,0.117,95.9
2019-12-12T03:10:03,42.805,6.029,0.109,-0.022,-0.034,102.0,101.0,99.0,13.4,1505.3,326.8,-0.7,1.8,2470.071,13.31,0.111,101.4
2019-12-12T03:13:03,42.805,6.029,0.085,-0.015,-0.036,102.0,102.0,101.0,13.4,1505.3,327.1,-0.7,1.8,2470.079,13.31,0.086,100.0
2019-12-12T03:16:03,42.805,6.029,0.089,-0.007,0.009,101.0,102.0,100.0,13.4,1505.3,325.3,-0.7,1.8,2470.076,13.32,0.089,94.5
2019-12-12T03:19:03,42.805,6.029,0.098,-0.024,-0.027,102.0,104.0,100.0,13.4,1505.3,326.9,-0.7,1.8,2470.131,13.32,0.1,103.8
2019-12-12T03:22:03,42.805,6.029,0.1,-0.025,-0.02,102.0,101.0,99.0,13.3,1505.3,326.5,-0.7,1.8,2470.091,13.32,0.103,104.0
2019-12-12T03:25:03,42.805,6.029,0.108,-0.041,-0.02,101.0,102.0,100.0,13.3,1505.3,327.0,-0.7,1.8,2470.093,13.32,0.115,110.8
2019-12-12T03:28:03,42.805,6.029,0.102,-0.014,-0.023,102.0,102.0,100.0,13.4,1505.3,327.6,-0.7,1.8,2470.07,13.32,0.102,97.8
2019-12-12T03:31:03,42.805,6.029,0.094,-0.03,-0.001,101.0,102.0,100.0,13.4,1505.3,326.3,-0.7,1.8,2470.08,13.32,0.098,107.7
2019-12-12T03:34:03,42.805,6.029,0.119,-0.032,0.0,101.0,101.0,101.0,13.4,1505.3,323.0,-0.7,1.8,2470.073,13.32,0.123,105.1
2019-12-12T03:37:03,42.805,6.029,0.103,-0.032,-0.014,102.0,102.0,100.0,13.4,1505.3,325.6,-0.7,1.8,2470.037,13.32,0.107,107.3
2019-12-12T03:40:03,42.805,6.029,0.106,-0.033,-0.01,101.0,103.0,99.0,13.3,1505.3,325.0,-0.7,1.8,2470.108,13.32,0.111,107.3
2019-12-12T03:43:03,42.805,6.029,0.096,-0.031,-0.016,101.0,103.0,101.0,13.4,1505.3,326.9,-0.7,1.8,2470.081,13.32,0.1,107.9
2019-12-12T03:46:03,42.805,6.029,0.113,-0.049,-0.027,101.0,103.0,99.0,13.4,1505.3,327.4,-0.7,1.8,2470.086,13.32,0.123,113.4
2019-12-12T03:49:03,42.805,6.029,0.102,-0.019,-0.001,103.0,102.0,100.0,13.3,1505.3,324.5,-0.7,1.8,2470.052,13.32,0.103,100.6
2019-12-12T03:52:03,42.805,6.029,0.082,-0.011,0.0,102.0,102.0,101.0,13.3,1505.3,326.7,-0.7,1.8,2470.1,13.32,0.082,97.6
2019-12-12T03:55:03,42.805,6.029,0.119,-0.018,-0.023,102.0,102.0,100.0,13.3,1505.3,326.4,-0.7,1.8,2470.064,13.32,0.12,98.6
2019-12-12T03:58:03,42.805,6.029,0.098,-0.048,-0.063,102.0,102.0,100.0,13.4,1505.3,328.0,-0.7,1.8,2470.088,13.32,0.109,116.1
2019-12-12T04:04:03,42.805,6.029,0.103,-0.034,-0.049,102.0,103.0,100.0,13.4,1505.2,324.5,-0.8,1.8,2470.13,13.3,0.108,108.3
2019-12-12T04:07:03,42.805,6.029,0.095,-0.044,-0.045,101.0,102.0,101.0,13.4,1505.3,325.7,-0.8,1.8,2470.118,13.31,0.104,114.9
2019-12-12T04:10:03,42.805,6.029,0.112,-0.042,-0.029,102.0,103.0,99.0,13.4,1505.3,323.3,-0.7,1.8,2470.122,13.31,0.119,110.6
2019-12-12T04:13:03,42.805,6.029,0.093,-0.043,-0.002,101.0,103.0,100.0,13.4,1505.3,326.1,-0.7,1.8,2470.121,13.31,0.102,114.8
2019-12-12T04:16:03,42.805,6.029,0.105,-0.046,-0.019,101.0,103.0,100.0,13.4,1505.3,327.3,-0.7,1.8,2470.108,13.32,0.114,113.7
2019-12-12T04:19:03,42.805,6.029,0.07,-0.045,-0.034,102.0,103.0,101.0,13.3,1505.3,324.5,-0.7,1.8,2470.139,13.32,0.083,122.7
2019-12-12T04:22:03,42.805,6.029,0.111,-0.06,-0.02,101.0,103.0,100.0,13.4,1505.3,328.3,-0.7,1.8,2470.094,13.32,0.126,118.4
2019-12-12T04:25:03,42.805,6.029,0.116,-0.02,-0.03,102.0,103.0,100.0,13.4,1505.3,327.0,-0.7,1.9,2470.104,13.32,0.117,99.8
2019-12-12T04:28:03,42.805,6.029,0.107,-0.022,-0.026,103.0,102.0,101.0,13.4,1505.3,327.2,-0.7,1.8,2470.116,13.32,0.109,101.6
2019-12-12T04:31:03,42.805,6.029,0.096,-0.031,-0.056,101.0,102.0,100.0,13.3,1505.3,326.4,-0.7,1.8,2470.106,13.32,0.1,107.9
2019-12-12T04:34:03,42.805,6.029,0.101,-0.041,-0.032,102.0,103.0,99.0,13.4,1505.3,325.2,-0.7,1.8,2470.149,13.32,0.109,112.1
2019-12-12T04:37:03,42.805,6.029,0.109,-0.029,-0.055,102.0,103.0,100.0,13.4,1505.3,323.9,-0.7,1.8,2470.157,13.32,0.112,104.9
2019-12-12T04:40:03,42.805,6.029,0.107,-0.039,-0.048,102.0,104.0,100.0,13.4,1505.3,325.1,-0.7,1.8,2470.16,13.32,0.113,110.0
2019-12-12T04:43:03,42.805,6.029,0.099,-0.014,-0.022,103.0,103.0,100.0,13.3,1505.3,326.8,-0.7,1.8,2470.146,13.32,0.099,98.0
2019-12-12T04:46:03,42.805,6.029,0.114,-0.01,0.016,102.0,103.0,100.0,13.4,1505.3,323.6,-0.7,1.8,2470.164,13.32,0.114,95.0
2019-12-12T04:49:03,42.805,6.029,0.095,-0.033,-0.023,101.0,103.0,99.0,13.3,1505.3,324.5,-0.7,1.8,2470.161,13.32,0.1,109.2
2019-12-12T04:52:03,42.805,6.029,0.111,-0.024,-0.029,102.0,102.0,100.0,13.4,1505.3,325.5,-0.7,1.8,2470.167,13.32,0.113,102.2
2019-12-12T04:55:03,42.805,6.029,0.08,-0.018,-0.003,103.0,102.0,100.0,13.3,1505.3,326.4,-0.7,1.8,2470.188,13.32,0.081,102.7
2019-12-12T04:58:03,42.805,6.029,0.1,-0.015,-0.03,101.0,102.0,100.0,13.3,1505.3,324.5,-0.7,1.8,2470.159,13.32,0.101,98.5
2019-12-12T05:04:03,42.805,6.029,0.101,-0.045,-0.022,102.0,103.0,100.0,13.4,1505.2,324.0,-0.7,1.9,2470.2,13.3,0.11,114.0
2019-12-12T05:07:03,42.805,6.029,0.098,-0.033,-0.036,102.0,102.0,100.0,13.4,1505.3,324.3,-0.7,1.9,2470.174,13.31,0.103,108.6
2019-12-12T05:10:03,42.805,6.029,0.107,-0.058,0.011,102.0,101.0,100.0,13.3,1505.3,324.3,-0.7,1.9,2470.195,13.31,0.121,118.5
2019-12-12T05:13:03,42.805,6.029,0.101,-0.042,-0.029,101.0,103.0,100.0,13.3,1505.3,325.8,-0.7,1.8,2470.186,13.31,0.109,112.6
2019-12-12T05:16:03,42.805,6.029,0.104,-0.037,-0.044,102.0,102.0,100.0,13.3,1505.3,324.0,-0.7,1.8,2470.198,13.32,0.11,109.6
2019-12-12T05:19:03,42.805,6.029,0.105,-0.037,-0.018,104.0,102.0,100.0,13.3,1505.3,324.3,-0.7,1.8,2470.182,13.32,0.111,109.4
2019-12-12T05:22:03,42.805,6.029,0.079,-0.018,-0.021,102.0,102.0,100.0,13.3,1505.3,323.3,-0.7,1.8,2470.21,13.32,0.081,102.8
2019-12-12T05:25:03,42.805,6.029,0.096,-0.053,-0.055,101.0,102.0,100.0,13.4,1505.3,326.7,-0.7,1.8,2470.218,13.32,0.109,118.9
2019-12-12T05:28:03,42.805,6.029,0.079,-0.024,-0.02,102.0,103.0,100.0,13.4,1505.3,324.9,-0.7,1.8,2470.183,13.32,0.082,106.9
2019-12-12T05:31:03,42.805,6.029,0.085,-0.036,-0.051,102.0,101.0,101.0,13.3,1505.3,328.1,-0.7,1.8,2470.205,13.32,0.092,113.0
2019-12-12T05:34:03,42.805,6.029,0.081,-0.016,-0.014,102.0,104.0,100.0,13.4,1505.3,326.5,-0.7,1.9,2470.227,13.32,0.082,101.2
2019-12-12T05:37:03,42.805,6.029,0.079,-0.05,-0.021,102.0,102.0,100.0,13.4,1505.3,327.3,-0.7,1.9,2470.198,13.32,0.093,122.3
2019-12-12T05:40:03,42.805,6.029,0.104,-0.026,0.025,102.0,103.0,99.0,13.3,1505.3,325.1,-0.7,1.8,2470.218,13.32,0.107,104.0
2019-12-12T05:43:03,42.805,6.029,0.092,-0.047,-0.014,102.0,103.0,100.0,13.4,1505.3,324.1,-0.7,1.9,2470.195,13.32,0.103,117.1
2019-12-12T05:46:03,42.805,6.029,0.111,-0.04,-0.036,102.0,103.0,100.0,13.3,1505.3,325.0,-0.7,1.8,2470.206,13.32,0.117,109.8
2019-12-12T05:49:03,42.805,6.029,0.086,-0.028,-0.013,102.0,103.0,100.0,13.4,1505.3,326.9,-0.7,1.9,2470.216,13.32,0.09,108.0
2019-12-12T05:52:03,42.805,6.029,0.08,-0.05,-0.043,103.0,102.0,101.0,13.4,1505.3,327.0,-0.7,1.8,2470.201,13.32,0.094,122.0
2019-12-12T05:55:03,42.805,6.029,0.098,-0.03,-0.034,102.0,104.0,100.0,13.3,1505.3,328.8,-0.7,1.9,2470.239,13.32,0.102,107.0
2019-12-12T05:58:03,42.805,6.029,0.086,-0.02,-0.03,102.0,102.0,100.0,13.4,1505.3,323.4,-0.7,1.8,2470.214,13.32,0.088,103.1
2019-12-12T06:04:03,42.805,6.029,0.087,-0.019,-0.025,102.0,103.0,100.0,13.4,1505.2,325.6,-0.7,1.8,2470.227,13.3,0.089,102.3
2019-12-12T06:07:03,42.805,6.029,0.093,-0.041,-0.054,101.0,101.0,100.0,13.4,1505.3,326.5,-0.7,1.8,2470.282,13.31,0.101,113.8
2019-12-12T06:10:03,42.805,6.029,0.097,-0.009,-0.022,101.0,102.0,100.0,13.3,1505.3,325.9,-0.7,1.8,2470.24,13.31,0.097,95.3
2019-12-12T06:13:03,42.805,6.029,0.09,-0.03,-0.024,102.0,103.0,100.0,13.4,1505.3,325.9,-0.7,1.8,2470.247,13.31,0.094,108.4
2019-12-12T06:16:03,42.805,6.029,0.072,-0.04,-0.039,102.0,103.0,100.0,13.4,1505.3,327.1,-0.7,1.8,2470.273,13.32,0.082,119.1
2019-12-12T06:19:03,42.805,6.029,0.118,-0.043,-0.045,101.0,101.0,101.0,13.3,1505.3,324.5,-0.7,1.8,2470.255,13.32,0.125,110.0
2019-12-12T06:22:03,42.805,6.029,0.074,-0.009,-0.016,103.0,103.0,100.0,13.4,1505.3,327.4,-0.7,1.8,2470.214,13.32,0.074,96.9
2019-12-12T06:25:03,42.805,6.029,0.073,-0.041,-0.047,101.0,102.0,100.0,13.4,1505.3,324.9,-0.7,1.9,2470.262,13.32,0.083,119.3
2019-12-12T06:28:03,42.805,6.029,0.065,-0.024,-0.046,103.0,102.0,100.0,13.4,1505.3,327.3,-0.7,1.8,2470.285,13.32,0.069,110.3
2019-12-12T06:31:03,42.805,6.029,0.084,-0.047,-0.037,102.0,102.0,100.0,13.4,1505.3,328.4,-0.7,1.9,2470.246,13.32,0.096,119.2
2019-12-12T06:34:03,42.805,6.029,0.069,-0.031,-0.022,102.0,103.0,100.0,13.4,1505.3,324.8,-0.7,1.8,2470.242,13.32,0.075,114.2
2019-12-12T06:37:03,42.805,6.029,0.075,-0.04,-0.03,101.0,102.0,100.0,13.4,1505.3,326.3,-0.7,1.8,2470.266,13.32,0.084,118.1
2019-12-12T06:40:03,42.805,6.029,0.083,-0.044,-0.021,102.0,103.0,100.0,13.4,1505.3,325.5,-0.7,1.8,2470.244,13.32,0.093,117.9
2019-12-12T06:43:03,42.805,6.029,0.074,-0.022,-0.018,101.0,103.0,99.0,13.3,1505.3,323.7,-0.7,1.8,2470.251,13.32,0.077,106.6
2019-12-12T06:46:03,42.805,6.029,0.074,-0.013,-0.043,103.0,103.0,99.0,13.4,1505.3,323.0,-0.7,1.8,2470.221,13.32,0.075,100.0
2019-12-12T06:49:03,42.805,6.029,0.089,-0.02,-0.029,101.0,103.0,100.0,13.4,1505.3,326.9,-0.8,1.8,2470.264,13.32,0.091,102.7
2019-12-12T06:52:03,42.805,6.029,0.079,-0.029,0.002,102.0,102.0,100.0,13.4,1505.3,327.4,-0.7,1.8,2470.225,13.32,0.084,110.2
2019-12-12T06:55:03,42.805,6.029,0.076,-0.014,-0.027,101.0,102.0,100.0,13.4,1505.3,326.1,-0.7,1.8,2470.282,13.32,0.077,100.4
2019-12-12T06:58:03,42.805,6.029,0.083,-0.045,-0.031,100.0,103.0,100.0,13.4,1505.3,327.8,-0.7,1.9,2470.252,13.32,0.094,118.5
2019-12-12T07:04:03,42.805,6.029,0.073,-0.032,-0.041,101.0,103.0,99.0,13.4,1505.2,324.5,-0.7,1.8,2470.264,13.3,0.079,113.7
2019-12-12T07:07:03,42.805,6.029,0.073,-0.032,-0.036,102.0,103.0,99.0,13.4,1505.3,326.4,-0.7,1.8,2470.251,13.31,0.079,113.7
2019-12-12T07:10:03,42.805,6.029,0.086,-0.01,-0.022,100.0,102.0,100.0,13.4,1505.3,326.4,-0.7,1.8,2470.299,13.31,0.086,96.6
2019-12-12T07:13:03,42.805,6.029,0.085,-0.031,-0.042,101.0,103.0,100.0,13.4,1505.3,326.6,-0.7,1.8,2470.272,13.31,0.09,110.0
2019-12-12T07:16:03,42.805,6.029,0.076,-0.028,-0.024,101.0,102.0,100.0,13.4,1505.3,327.8,-0.7,1.9,2470.261,13.32,0.08,110.2
2019-12-12T07:19:03,42.805,6.029,0.081,-0.025,-0.039,102.0,103.0,99.0,13.4,1505.3,328.4,-0.7,1.8,2470.239,13.32,0.084,107.1
2019-12-12T07:22:03,42.805,6.029,0.097,-0.041,-0.004,101.0,103.0,99.0,13.4,1505.3,328.1,-0.7,1.9,2470.292,13.32,0.105,112.9
2019-12-12T07:25:03,42.805,6.029,0.081,-0.016,-0.033,103.0,102.0,99.0,13.4,1505.3,325.9,-0.7,1.8,2470.27,13.32,0.082,101.2
2019-12-12T07:28:03,42.805,6.029,0.053,-0.021,-0.046,102.0,101.0,100.0,13.4,1505.3,324.6,-0.7,1.8,2470.241,13.32,0.057,111.6
2019-12-12T07:31:03,42.805,6.029,0.082,-0.031,-0.03,101.0,101.0,99.0,13.4,1505.3,327.3,-0.7,1.8,2470.235,13.32,0.087,110.7
2019-12-12T07:34:03,42.805,6.029,0.076,-0.041,-0.03,100.0,101.0,100.0,13.4,1505.3,324.5,-0.8,1.8,2470.253,13.32,0.086,118.3
2019-12-12T07:37:03,42.805,6.029,0.093,-0.024,-0.023,102.0,103.0,99.0,13.4,1505.3,327.9,-0.7,1.8,2470.264,13.32,0.096,104.5
2019-12-12T07:40:03,42.805,6.029,0.115,-0.028,0.003,102.0,101.0,99.0,13.3,1505.3,324.3,-0.7,1.8,2470.256,13.32,0.118,103.7
2019-12-12T07:43:03,42.805,6.029,0.051,-0.019,-0.034,101.0,102.0,100.0,13.4,1505.3,326.9,-0.7,1.9,2470.237,13.32,0.054,110.4
2019-12-12T07:46:03,42.805,6.029,0.073,-0.03,-0.022,100.0,101.0,99.0,13.4,1505.3,327.0,-0.7,1.9,2470.254,13.32,0.078,112.3
2019-12-12T07:49:03,42.805,6.029,0.073,-0.031,-0.05,102.0,102.0,99.0,13.3,1505.3,325.4,-0.7,1.8,2470.251,13.32,0.079,113.0
2019-12-12T07:52:03,42.805,6.029,0.083,-0.025,-0.016,102.0,101.0,99.0,13.4,1505.3,325.1,-0.7,1.8,2470.239,13.32,0.086,106.8
2019-12-12T07:55:03,42.805,6.029,0.069,-0.019,-0.007,100.0,103.0,99.0,13.4,1505.3,324.6,-0.7,1.8,2470.255,13.32,0.071,105.4
2019-12-12T07:58:03,42.805,6.029,0.085,-0.03,-0.049,101.0,102.0,98.0,13.4,1505.3,325.3,-0.7,1.8,2470.259,13.32,0.09,109.4
2019-12-12T08:04:03,42.805,6.029,0.072,-0.022,-0.045,101.0,102.0,99.0,13.4,1505.2,326.0,-0.7,1.8,2470.33,13.3,0.075,107.0
2019-12-12T08:07:03,42.805,6.029,0.093,-0.03,0.007,102.0,102.0,98.0,13.4,1505.3,327.8,-0.7,1.8,2470.256,13.31,0.097,107.9
2019-12-12T08:10:03,42.805,6.029,0.074,-0.017,-0.048,101.0,101.0,99.0,13.4,1505.3,325.3,-0.7,1.8,2470.262,13.31,0.075,102.9
2019-12-12T08:13:03,42.805,6.029,0.065,-0.014,-0.028,101.0,101.0,99.0,13.3,1505.3,323.1,-0.7,1.9,2470.237,13.31,0.066,102.2
2019-12-12T08:16:03,42.805,6.029,0.075,-0.016,-0.036,100.0,103.0,99.0,13.3,1505.3,326.8,-0.7,1.9,2470.267,13.32,0.076,102.0
2019-12-12T08:19:03,42.805,6.029,0.101,-0.027,-0.032,102.0,101.0,99.0,13.4,1505.3,324.7,-0.7,1.8,2470.294,13.32,0.104,105.0
2019-12-12T08:22:03,42.805,6.029,0.081,-0.021,-0.057,100.0,103.0,99.0,13.3,1505.3,327.9,-0.7,1.9,2470.254,13.32,0.083,104.5
2019-12-12T08:25:03,42.805,6.029,0.069,-0.016,-0.051,101.0,103.0,98.0,13.3,1505.3,327.4,-0.7,1.8,2470.228,13.32,0.07,103.1
2019-12-12T08:28:03,42.805,6.029,0.074,-0.028,-0.044,101.0,102.0,99.0,13.3,1505.3,323.8,-0.7,1.8,2470.227,13.32,0.079,110.7
2019-12-12T08:31:03,42.805,6.029,0.077,-0.013,-0.012,101.0,103.0,100.0,13.3,1505.3,327.4,-0.7,1.8,2470.23,13.32,0.078,99.6
2019-12-12T08:34:03,42.805,6.029,0.065,-0.024,-0.048,101.0,102.0,99.0,13.3,1505.3,326.1,-0.7,1.8,2470.242,13.32,0.069,110.3
2019-12-12T08:37:03,42.805,6.029,0.078,-0.024,-0.059,100.0,103.0,99.0,13.4,1505.3,323.2,-0.7,1.8,2470.249,13.32,0.081,107.1
2019-12-12T08:40:03,42.805,6.029,0.06,-0.001,-0.038,102.0,102.0,99.0,13.4,1505.3,324.9,-0.7,1.8,2470.206,13.32,0.06,91.0
2019-12-12T08:43:03,42.805,6.029,0.077,-0.01,-0.022,101.0,101.0,99.0,13.4,1505.3,325.2,-0.7,1.8,2470.247,13.32,0.077,97.4
2019-12-12T08:46:03,42.805,6.029,0.084,-0.018,-0.026,103.0,104.0,97.0,13.3,1505.3,328.7,-0.7,1.9,2470.254,13.32,0.085,102.1
2019-12-12T08:49:03,42.805,6.029,0.05,-0.02,-0.039,101.0,104.0,99.0,13.3,1505.3,327.4,-0.7,1.9,2470.223,13.32,0.053,111.8
2019-12-12T08:52:03,42.805,6.029,0.043,0.004,-0.039,101.0,102.0,99.0,13.4,1505.3,325.7,-0.7,1.8,2470.224,13.32,0.043,84.7
2019-12-12T08:55:03,42.805,6.029,0.085,0.004,-0.023,101.0,103.0,98.0,13.3,1505.3,324.3,-0.7,1.8,2470.261,13.32,0.085,87.3
2019-12-12T08:58:03,42.805,6.029,0.057,0.008,-0.033,101.0,102.0,98.0,13.4,1505.3,323.6,-0.7,1.8,2470.223,13.32,0.057,82.0
2019-12-12T09:04:03,42.805,6.029,0.088,0.006,-0.008,100.0,102.0,99.0,13.4,1505.2,324.3,-0.8,1.8,2470.239,13.3,0.088,86.1
2019-12-12T09:07:03,42.805,6.029,0.074,-0.015,-0.04,101.0,103.0,98.0,13.4,1505.3,326.5,-0.8,1.8,2470.246,13.31,0.075,101.5
2019-12-12T09:10:03,42.805,6.029,0.055,-0.003,-0.044,102.0,103.0,98.0,13.4,1505.3,323.6,-0.7,1.9,2470.249,13.31,0.055,93.1
2019-12-12T09:13:03,42.805,6.029,0.09,-0.003,-0.001,101.0,104.0,97.0,13.4,1505.3,326.7,-0.7,1.8,2470.25,13.32,0.09,91.9
2019-12-12T09:16:03,42.805,6.029,0.075,-0.006,-0.034,102.0,104.0,99.0,13.4,1505.3,328.3,-0.7,1.8,2470.196,13.32,0.075,94.6
2019-12-12T09:19:03,42.805,6.029,0.081,-0.007,-0.011,100.0,103.0,100.0,13.4,1505.3,326.9,-0.7,1.8,2470.222,13.32,0.081,94.9
2019-12-12T09:22:03,42.805,6.029,0.089,-0.031,-0.018,102.0,102.0,97.0,13.4,1505.3,328.1,-0.7,1.8,2470.2,13.32,0.094,109.2
2019-12-12T09:25:03,42.805,6.029,0.084,-0.025,-0.021,102.0,102.0,99.0,13.4,1505.3,324.9,-0.7,1.8,2470.222,13.32,0.087,106.6
2019-12-12T09:28:03,42.805,6.029,0.072,-0.016,-0.066,102.0,103.0,98.0,13.4,1505.3,326.7,-0.7,1.8,2470.175,13.32,0.073,102.5
2019-12-12T09:31:03,42.805,6.029,0.079,-0.018,-0.007,101.0,103.0,99.0,13.4,1505.3,327.9,-0.7,1.8,2470.212,13.32,0.081,102.8
2019-12-12T09:34:03,42.805,6.029,0.084,-0.015,-0.043,101.0,103.0,98.0,13.3,1505.3,325.8,-0.7,1.8,2470.215,13.32,0.085,100.1
2019-12-12T09:37:03,42.805,6.029,0.063,-0.019,-0.019,101.0,102.0,99.0,13.3,1505.3,327.0,-0.7,1.8,2470.215,13.32,0.065,106.8
2019-12-12T09:40:03,42.805,6.029,0.072,-0.018,-0.033,101.0,103.0,99.0,13.4,1505.3,323.9,-0.7,1.8,2470.241,13.32,0.074,104.0
2019-12-12T09:43:03,42.805,6.029,0.098,-0.001,-0.028,100.0,102.0,98.0,13.4,1505.3,324.1,-0.7,1.9,2470.234,13.32,0.098,90.6
2019-12-12T09:46:03,42.805,6.029,0.068,-0.011,-0.034,101.0,103.0,99.0,13.4,1505.3,323.8,-0.7,1.8,2470.183,13.32,0.068,99.2
2019-12-12T09:49:03,42.805,6.029,0.051,-0.021,-0.035,100.0,102.0,99.0,13.4,1505.3,327.4,-0.7,1.8,2470.231,13.32,0.055,112.4
2019-12-12T09:52:03,42.805,6.029,0.064,-0.016,-0.039,102.0,102.0,98.0,13.4,1505.3,323.9,-0.7,1.8,2470.196,13.32,0.065,104.0
2019-12-12T09:55:03,42.805,6.029,0.08,-0.024,-0.008,100.0,103.0,99.0,13.4,1505.3,325.4,-0.7,1.8,2470.179,13.32,0.083,106.7
2019-12-12T09:58:03,42.805,6.029,0.083,-0.031,-0.027,101.0,102.0,100.0,13.3,1505.3,326.2,-0.7,1.8,2470.171,13.32,0.088,110.5